Location: Cheching
(60.0667°N, 164.2167°W)
Time: 14:16:22
(UTC+00:00)

O/OREOS (USA 219) - Pass Details

Date: 18 January 2021
Orbit: 621 x 646 km, 72.0° (Epoch: 22 May)

Event Time Altitude Azimuth Distance (km) Brightness Sun altitude
Rises 05:26:11 0° 315° (NW) 2,961 ? -20.0°
Reaches altitude 10° 05:30:05 10° 281° (WNW) 2,039 ? -20.5°
Maximum altitude 05:31:28 11° 264° (W) 1,949 ? -20.6°
Drops below altitude 10° 05:32:51 10° 246° (WSW) 2,029 ? -20.8°
Sets 05:36:43 0° 212° (SSW) 2,924 ? -21.3°
